Flag for U.S.A. Weather past 2 weeks in Sandpoint, Idaho, U.S.A.

Now
45 °F

Clear.


Feels Like: 45 °F
Forecast: 43 / 78 °F
Wind: No wind

Location: Sandpoint Airport

Current Time: Jul 26, 2014 at 4:41:04 AM

Latest Report: Jul 26, 2014 at 4:15 AM


Visibility: 10 mi

Pressure: 30.13 "Hg

Humidity: 100%

Dew point: 45 °F

Location of SandpointLocation

Historic Weather in Sandpoint — Graph

°F

Sandpoint temperature yesterday

Maximum temperature yesterday: 73 °F (at 3:55 PM)
Minimum temperature yesterday: 45 °F (at 3:55 AM)
Average temperature yesterday: 61 °F

Past Weeks' High & Low Weather Summary

 TemperatureHumidityPressure
High93 °F (Jul 13, 4:15 PM)100% (Jul 11, 3:15 AM)30.18 "Hg (Jul 11, 3:15 AM)
Low45 °F (Jul 25, 3:55 AM)18% (Jul 12, 3:35 PM)29.74 "Hg (Jul 17, 7:55 PM)
Average67 °F67%29.98 "Hg
* Reported Jul 11 3:15 AM — Jul 26 3:15 AM, Sandpoint, Weather by CustomWeather, © 2014

Note: Actual official high and low records may vary slightly from our data, if they occured in-between our weather recording intervals... More about our weather records

Advertising

Sandpoint weather history for previous 24 hours

 ConditionsComfort  
Time TempWeatherWind HumidityBarometerVisibility
3:15 AM
Jul 26
46 °FClear.No wind100%30.12 "Hg10 mi
2:55 AM46 °FClear.No wind100%30.11 "Hg10 mi
2:35 AM46 °FClear.No wind100%30.11 "Hg10 mi
2:15 AM46 °FClear.No wind100%30.11 "Hg10 mi
1:55 AM46 °FClear.3 mph100%30.10 "Hg10 mi
1:35 AM46 °FClear.No wind100%30.10 "Hg10 mi
1:15 AM46 °FClear.No wind100%30.10 "Hg10 mi
12:55 AM46 °FClear.No wind100%30.10 "Hg10 mi
12:35 AM48 °FClear.No wind100%30.10 "Hg10 mi
12:15 AM50 °FClear.3 mph100%30.09 "Hg10 mi
11:55 PM
Jul 25
50 °FClear.No wind100%30.09 "Hg10 mi
11:35 PM52 °FClear.No wind94%30.08 "Hg10 mi
11:15 PM50 °FClear.No wind100%30.08 "Hg10 mi
10:55 PM52 °FClear.No wind94%30.07 "Hg10 mi
10:35 PM52 °FClear.No wind94%30.07 "Hg10 mi
10:15 PM54 °FClear.No wind88%30.07 "Hg10 mi
9:55 PM55 °FClear.No wind77%30.07 "Hg10 mi
9:35 PM55 °FClear.5 mph77%30.07 "Hg10 mi
9:15 PM55 °FSunny.No wind82%30.06 "Hg10 mi
8:55 PM59 °FSunny.3 mph72%30.05 "Hg10 mi
8:35 PM59 °FSunny.No wind72%30.05 "Hg10 mi
8:15 PM61 °FSunny.No wind68%30.04 "Hg10 mi
7:55 PM63 °FSunny.No wind64%30.04 "Hg10 mi
7:35 PM70 °FSunny.No wind43%30.04 "Hg10 mi
7:15 PM72 °FSunny.5 mph36%30.04 "Hg10 mi
6:55 PM72 °FSunny.5 mph36%30.04 "Hg10 mi
6:35 PM72 °FSunny.5 mph36%30.04 "Hg10 mi
6:15 PM72 °FSunny.5 mph33%30.04 "Hg10 mi
5:55 PM73 °FSunny.6 mph33%30.04 "Hg10 mi
5:35 PM72 °FSunny.8 mph36%30.04 "Hg10 mi
5:15 PM73 °FScattered clouds.6 mph33%30.04 "Hg10 mi
4:55 PM73 °FScattered clouds.8 mph33%30.04 "Hg10 mi
4:35 PM73 °FScattered clouds.12 mph33%30.05 "Hg10 mi
4:15 PM73 °FScattered clouds.7 mph33%30.05 "Hg10 mi
3:55 PM73 °FSunny.6 mph33%30.05 "Hg10 mi
3:35 PM72 °FSunny.7 mph36%30.05 "Hg10 mi
3:15 PM72 °FSunny.9 mph36%30.06 "Hg10 mi
2:55 PM72 °FScattered clouds.7 mph38%30.06 "Hg10 mi
2:35 PM72 °FScattered clouds.3 mph36%30.06 "Hg10 mi
2:15 PM70 °FScattered clouds.9 mph40%30.07 "Hg10 mi
1:55 PM70 °FScattered clouds.6 mph38%30.07 "Hg10 mi
1:35 PM70 °FScattered clouds.3 mph40%30.07 "Hg10 mi
1:15 PM70 °FSunny.7 mph40%30.07 "Hg10 mi
12:55 PM68 °FSunny.6 mph43%30.07 "Hg10 mi
12:35 PM66 °FScattered clouds.6 mph46%30.08 "Hg10 mi
12:15 PM64 °FScattered clouds.6 mph49%30.08 "Hg10 mi
11:55 AM68 °FScattered clouds.7 mph46%30.08 "Hg10 mi
11:35 AM66 °FScattered clouds.8 mph49%30.08 "Hg10 mi
11:15 AM64 °FPartly sunny.9 mph49%30.08 "Hg10 mi
10:55 AM64 °FPartly sunny.10 mph52%30.09 "Hg10 mi
10:15 AM63 °FSunny.7 mph56%30.08 "Hg10 mi
9:55 AM63 °FSunny.7 mph56%30.09 "Hg10 mi
9:15 AM63 °FSunny.8 mph59%30.09 "Hg10 mi
8:55 AM61 °FSunny.9 mph59%30.09 "Hg10 mi
8:35 AM61 °FSunny.9 mph59%30.09 "Hg10 mi
8:15 AM61 °FSunny.8 mph63%30.09 "Hg10 mi
7:55 AM59 °FSunny.8 mph68%30.08 "Hg10 mi
7:35 AM59 °FSunny.7 mph63%30.08 "Hg10 mi
7:15 AM55 °FSunny.5 mph77%30.07 "Hg10 mi
6:55 AM55 °FSunny.3 mph77%30.07 "Hg10 mi
6:35 AM54 °FSunny.3 mph77%30.06 "Hg10 mi
5:35 AM52 °FClear.5 mph88%30.05 "Hg10 mi
5:15 AM48 °FPassing clouds.No wind100%30.04 "Hg10 mi
4:55 AM45 °FPassing clouds.3 mph100%30.05 "Hg10 mi
4:35 AM45 °FClear.No wind100%30.04 "Hg10 mi
Weather by CustomWeather, © 2014

See weather overviewHow to use our weather pages